GFSSGP_sfc_30mbdewp_231.txt.gz
Dewpoint
67 67 63 62 58 52 47 48 48 46 46 49 51 53 54 57 56 54 60 60 61 63 67 69 74 74 74 74 73 73 72 72 73 72 72 73 73 72 72 72 71 71 71 71 73 73 72 72 72
63 62 63 56 56 48 48 51 50 48 49 51 52 54 51 57 59 57 60 61 61 64 66 68 74 74 74 74 74 74 72 73 73 73 72 72 72 72 72 71 71 71 71 71 71 73 73 71 71
63 62 57 52 52 50 49 52 51 51 53 54 54 54 56 59 57 58 60 61 61 62 64 72 75 75 75 74 74 74 74 74 73 73 73 72 72 72 71 71 71 72 71 71 71 72 72 72 71
58 59 56 54 49 51 50 51 52 53 54 53 53 56 60 60 58 59 61 61 61 61 65 73 74 74 74 73 73 73 72 72 72 72 72 72 71 71 71 72 72 72 72 72 72 71 72 73 73
58 55 48 49 50 51 51 52 54 52 54 53 54 56 60 61 60 60 61 61 60 65 67 70 74 73 73 73 72 72 71 71 71 72 72 72 72 72 72 71 72 71 71 71 71 71 71 72 73
50 47 43 48 48 49 50 53 51 54 53 54 54 56 58 61 59 59 60 61 60 67 65 71 73 73 73 72 72 72 72 71 72 72 72 72 71 72 71 71 71 71 72 71 72 71 71 71 71
44 42 42 44 46 48 49 51 50 51 53 53 57 56 57 58 59 58 60 59 61 65 67 69 68 72 72 72 72 72 72 72 71 71 71 71 71 71 71 70 71 72 71 70 71 71 70 70 70
48 40 40 42 44 44 48 50 52 54 53 55 56 57 57 58 59 59 59 60 63 65 65 66 66 67 69 71 72 71 71 72 71 71 71 71 71 71 71 71 71 70 70 69 70 71 70 70 70
48 37 38 38 40 43 49 48 53 53 53 57 58 57 60 59 58 58 58 59 61 62 62 63 63 65 69 72 72 72 71 70 70 69 71 72 68 69 69 68 70 70 71 70 70 71 70 70 70
39 36 38 38 38 42 45 48 50 51 52 56 59 60 61 59 58 57 57 57 58 60 62 63 64 65 70 72 69 69 65 61 65 68 65 69 69 71 72 70 70 70 69 70 70 71 70 69 65
38 37 39 41 44 43 46 48 50 49 46 55 58 60 60 58 57 57 57 57 57 59 61 62 64 67 70 70 64 68 67 63 63 65 66 65 69 66 66 68 70 70 69 68 68 69 67 63 66
35 37 38 41 45 44 46 50 48 49 49 55 59 59 57 57 56 56 57 58 58 59 62 62 63 65 70 68 64 66 65 63 63 64 67 68 69 68 68 68 68 70 69 68 68 68 65 66 62
34 35 37 38 42 43 47 48 49 51 52 57 58 57 56 55 55 55 56 57 59 61 63 63 65 67 69 67 66 65 65 64 65 68 68 67 69 69 70 70 68 70 68 68 67 66 64 65 62
31 33 32 35 37 41 43 47 51 52 53 56 56 55 54 54 54 55 56 57 60 61 64 66 68 67 68 69 71 69 71 70 71 70 69 69 70 66 69 70 70 68 68 67 67 66 66 60 59
29 31 33 34 35 37 43 44 47 53 54 55 55 53 53 53 55 55 57 58 60 61 63 64 66 69 69 70 71 71 67 69 71 69 69 68 67 69 69 70 69 68 68 67 67 65 64 63 64
28 28 30 31 32 36 41 38 50 53 53 52 53 52 53 54 54 57 58 58 60 61 63 64 63 66 67 71 70 67 67 66 69 68 66 65 66 69 71 70 69 68 66 67 63 63 62 62 64
24 29 26 28 32 32 37 36 48 52 51 49 52 53 53 54 56 58 61 60 60 62 63 64 65 64 66 67 69 67 69 68 66 68 67 66 65 65 69 70 70 70 68 66 64 64 68 63 62
24 23 24 25 26 31 31 35 43 50 49 49 49 52 53 54 55 58 59 61 61 63 64 65 66 66 67 67 68 66 65 67 69 68 67 66 65 65 69 70 71 68 67 68 66 69 68 64 63
22 23 23 23 23 25 29 33 42 45 46 48 50 50 52 53 55 57 58 59 61 63 64 66 66 67 68 67 68 66 66 67 67 68 67 66 67 66 66 66 68 70 69 69 68 68 67 65 66
23 22 22 22 23 25 28 27 36 44 42 46 49 50 51 51 54 57 59 59 60 63 64 66 67 68 70 68 66 68 67 68 66 67 68 69 69 68 68 68 67 68 70 69 69 69 69 65 66
24 20 22 18 21 22 25 25 27 32 42 43 47 49 50 51 54 57 58 58 60 61 64 66 68 69 70 68 68 68 68 68 68 68 68 70 70 69 69 68 68 67 70 68 69 68 68 66 66
21 20 17 18 19 16 19 22 29 33 38 41 44 47 48 51 53 56 57 58 59 61 64 66 69 70 70 70 68 67 68 67 67 67 67 67 70 69 70 70 67 69 67 68 68 67 68 68 66
20 17 16 17 19 19 19 20 30 34 36 40 43 45 46 49 52 54 56 57 58 61 63 65 68 70 70 71 71 68 68 67 65 65 68 69 69 70 70 69 68 69 68 67 67 67 69 69 66
20 17 17 16 16 15 14 13 33 38 38 40 44 46 46 47 50 52 55 56 57 59 62 65 68 71 72 71 72 71 69 67 67 66 65 65 66 67 69 68 70 71 70 69 67 70 70 69 67
17 15 13 13 13 13 19 18 42 44 45 45 49 47 47 47 50 52 53 55 57 59 61 63 67 71 72 72 71 72 71 70 69 69 67 65 63 65 67 69 70 71 71 70 69 70 68 71 68
18 12 11 18 20 29 27 23 44 44 49 49 50 49 45 45 49 52 53 56 58 60 62 63 66 70 71 71 71 72 72 71 70 70 70 70 70 67 68 68 69 71 71 70 71 70 68 68 69
17 16 15 13 27 27 30 32 44 47 48 50 51 51 49 47 50 53 56 58 61 61 63 64 65 69 70 70 71 72 72 72 70 70 71 69 67 65 67 68 68 70 71 71 70 70 69 68 68
17 20 13 14 25 21 36 39 41 45 47 50 53 54 56 57 58 59 59 60 61 61 62 63 65 67 68 69 69 70 70 72 71 71 70 67 67 67 68 71 70 69 70 70 71 70 70 69 66
15 17 17 24 26 24 31 36 45 40 49 50 53 55 56 57 58 60 61 61 61 63 63 63 65 68 68 68 70 70 70 69 69 68 65 67 68 69 68 68 70 71 71 71 71 70 69 68 68
22 22 23 19 21 24 27 29 38 47 50 52 55 56 57 57 58 61 63 64 65 66 68 67 67 67 68 70 69 66 65 66 65 65 65 68 67 67 69 70 70 70 70 72 71 70 70 69 69

GFSSGP_sfc_30mbdewp_234.txt.gz
Dewpoint
65 64 65 63 60 56 48 48 50 47 44 48 52 54 55 58 52 53 58 58 59 61 69 73 74 74 74 74 73 73 73 73 72 72 73 73 72 72 72 71 71 71 71 73 72 72 72 72 72
61 63 62 62 55 49 49 49 49 49 53 52 53 58 54 53 56 57 59 60 60 61 65 70 75 74 74 74 74 73 72 72 72 72 72 73 72 72 71 71 71 71 71 71 73 72 72 71 71
61 62 60 58 55 51 52 49 51 53 54 54 51 56 55 54 57 59 59 60 62 63 64 71 75 74 74 74 74 74 73 73 73 73 72 72 72 72 71 71 71 71 71 71 71 72 72 71 71
58 59 65 56 52 56 56 52 53 53 52 53 57 56 56 56 57 58 59 60 61 64 69 74 75 75 74 74 74 74 74 73 73 72 72 72 71 71 71 71 72 72 72 71 71 72 72 72 71
54 56 53 51 48 49 50 53 52 53 53 54 56 55 56 58 58 59 59 59 62 68 70 72 75 74 74 74 74 73 72 72 72 72 71 71 72 72 72 71 72 71 71 71 71 71 71 72 71
50 51 52 49 46 47 49 53 54 52 53 55 55 57 57 58 58 60 60 60 63 66 68 72 74 74 74 73 73 72 72 71 72 72 72 72 71 72 70 71 71 72 72 71 71 71 70 71 71
48 46 50 48 46 45 46 52 55 55 53 57 55 54 57 56 58 61 63 64 64 67 69 70 70 72 73 73 72 72 71 71 71 71 71 71 71 70 71 70 71 71 71 70 71 71 71 70 71
49 40 40 46 47 43 46 48 54 52 54 57 57 53 54 56 57 61 64 64 65 67 67 68 68 70 71 72 71 71 71 72 72 72 72 72 71 71 71 70 71 71 71 70 70 71 70 70 70
43 40 37 38 41 41 47 46 49 52 54 55 57 55 56 57 57 59 62 64 68 65 64 66 65 69 72 72 71 73 72 71 69 69 67 69 70 67 67 69 69 71 71 70 69 71 70 70 70
40 38 36 37 39 40 43 44 50 56 53 54 58 57 56 56 56 59 61 63 65 62 63 65 66 68 71 72 73 71 65 62 64 67 66 64 69 68 62 68 70 71 70 70 70 71 70 70 69
39 39 41 44 42 43 45 45 53 50 54 55 57 57 56 55 55 56 58 62 62 62 62 65 69 71 71 71 68 68 67 63 62 65 65 64 67 67 66 68 70 71 69 68 69 70 70 67 68
34 39 40 39 44 43 49 52 45 47 55 56 57 57 55 54 57 57 56 57 59 62 63 64 68 70 70 70 65 66 67 64 63 63 66 67 68 69 70 70 69 68 70 69 70 68 68 67 69
34 34 36 38 42 41 43 44 45 49 52 55 57 56 54 53 56 57 58 59 61 60 62 62 66 71 71 69 66 64 64 64 63 64 67 68 68 68 68 68 70 69 71 70 69 69 67 67 67
30 32 34 36 37 42 42 51 46 50 52 53 53 53 53 53 54 56 59 59 59 62 63 62 66 71 71 68 67 65 67 70 67 68 70 70 69 69 70 68 68 69 70 69 69 67 67 67 65
28 31 32 34 36 44 42 47 47 51 51 51 50 51 52 51 53 55 58 59 62 64 65 66 66 68 70 71 72 70 69 69 72 71 70 70 71 69 69 70 68 69 70 69 68 68 67 65 66
26 29 31 31 33 46 46 44 49 50 50 49 50 50 51 51 53 57 57 58 62 64 67 67 67 68 69 71 72 71 70 71 71 72 70 70 70 69 71 70 70 70 70 69 68 67 66 65 65
25 31 31 28 31 36 38 42 48 49 48 47 48 48 51 52 55 56 59 60 61 64 66 67 69 69 70 72 71 70 67 68 69 69 69 70 68 67 70 68 69 70 71 69 69 68 68 66 64
26 29 25 27 27 31 37 39 47 47 47 46 49 49 49 51 56 57 59 60 62 64 65 67 68 69 70 72 72 70 69 69 69 70 69 68 69 68 72 68 67 71 69 68 68 67 69 67 67
27 24 23 23 24 25 29 37 42 45 46 46 48 49 50 49 53 58 59 58 62 64 65 66 67 70 70 69 68 67 67 68 69 69 69 68 69 68 69 71 69 70 70 70 68 69 68 67 68
25 19 20 22 22 22 27 32 40 42 41 46 52 52 48 50 51 55 56 59 57 63 65 67 68 70 70 69 69 68 68 70 70 69 69 70 69 69 68 69 69 69 70 69 70 70 70 67 68
23 20 25 23 22 21 24 25 40 41 39 44 46 56 56 51 50 55 54 55 58 63 65 69 70 72 71 71 70 69 70 69 70 69 70 70 71 70 70 71 70 69 70 70 70 70 69 67 67
20 26 20 19 19 17 18 19 30 29 37 39 43 51 46 51 51 55 55 55 56 63 65 69 70 72 72 72 70 68 67 65 67 69 70 71 71 71 72 71 71 71 70 70 69 70 69 68 66
23 23 16 16 17 18 20 16 29 33 31 38 39 46 57 58 50 53 55 56 57 61 64 68 71 72 72 73 72 69 69 69 69 69 69 70 71 71 71 72 71 71 72 69 69 69 68 69 66
21 19 18 16 16 14 15 17 30 40 45 46 39 42 53 52 51 53 54 56 57 61 63 66 72 73 73 74 73 72 69 68 68 69 67 69 70 71 72 71 71 70 71 71 70 70 71 70 68
20 17 13 13 12 12 25 27 38 45 41 45 46 43 43 47 49 53 54 55 57 60 63 65 71 72 74 73 73 73 73 72 70 70 69 69 70 69 70 71 69 70 71 70 70 70 71 72 71
15 12 10 13 20 24 31 32 39 43 41 45 46 44 43 43 48 50 53 57 58 61 62 64 71 73 73 73 73 73 74 73 73 71 69 70 70 69 69 67 62 67 72 72 71 70 71 70 71
17 16 16 12 12 21 32 46 46 45 44 44 46 45 43 43 46 55 53 57 59 61 63 63 70 71 72 72 73 73 73 73 73 72 72 72 71 69 69 71 70 70 71 71 71 70 70 70 70
16 16 15 12 14 21 37 37 46 51 54 53 46 46 43 46 50 52 54 59 60 60 62 64 69 70 70 71 72 73 73 73 73 73 72 71 69 70 70 71 71 70 70 71 71 71 71 70 69
16 15 17 17 19 24 32 30 51 47 48 54 54 53 55 56 57 58 59 60 61 61 63 63 65 69 69 71 71 71 71 71 72 70 70 68 70 70 71 71 72 72 71 71 71 70 70 71 70
17 13 17 15 26 24 30 32 50 51 53 59 58 55 56 56 58 59 61 66 68 68 69 69 69 69 70 70 70 70 68 66 66 66 67 70 65 65 65 68 71 71 71 72 71 71 71 70 69

GFSSGP_sfc_30mbdewp_237.txt.gz
Dewpoint
66 65 66 66 53 57 47 48 52 52 55 56 55 56 52 56 50 53 64 64 68 71 74 74 74 74 74 74 74 73 72 72 73 73 73 72 72 72 71 71 71 72 73 72 72 72 73 73 73
61 62 65 61 55 49 49 51 52 53 57 57 55 55 55 55 57 58 61 64 67 72 73 74 75 74 74 74 74 73 72 72 73 73 72 72 72 72 72 71 71 71 71 73 73 72 71 72 72
63 67 62 56 55 49 52 52 51 51 55 56 55 55 55 56 58 58 59 63 68 70 72 74 75 75 74 73 73 73 73 72 72 72 72 72 72 71 71 71 70 71 71 71 72 73 71 71 71
63 67 64 55 52 54 56 53 52 53 56 57 55 54 57 59 58 59 59 63 63 68 73 75 75 74 74 73 74 73 73 73 73 72 72 72 71 71 71 71 72 72 72 71 71 72 73 71 71
57 65 55 57 54 56 58 53 54 54 55 55 55 55 57 58 60 61 63 63 66 70 74 75 74 75 75 75 74 74 73 73 73 72 71 71 72 72 71 71 72 71 72 71 71 71 72 72 72
52 57 52 49 46 54 54 56 55 55 56 55 55 56 57 58 59 60 64 69 71 71 73 74 75 75 74 73 73 73 72 72 72 72 72 72 71 71 70 71 70 71 71 71 71 71 71 71 71
49 52 50 48 45 51 54 55 54 56 57 57 58 56 56 59 59 61 67 69 70 72 73 74 73 73 73 74 73 73 72 72 71 71 71 71 71 70 71 71 70 71 71 71 71 71 71 71 71
51 50 48 46 44 45 54 55 55 56 55 57 58 55 55 60 63 64 68 69 70 70 71 72 72 72 73 73 72 71 71 71 72 73 73 72 71 71 70 68 71 70 71 71 71 71 71 71 71
44 42 42 44 42 47 48 48 55 57 57 58 57 56 57 62 63 64 67 68 69 69 69 70 71 72 72 72 71 72 73 72 71 69 68 69 67 67 64 66 68 70 70 70 69 70 70 71 71
41 42 40 41 43 45 51 53 55 56 58 55 55 56 58 61 62 63 66 67 67 66 68 69 70 71 72 71 73 72 71 67 66 64 63 65 66 65 65 65 68 71 70 70 71 70 71 70 71
41 42 42 43 45 47 49 51 50 55 57 58 55 55 56 59 61 62 65 65 66 65 66 67 69 71 71 72 72 69 66 63 64 63 63 63 67 63 66 66 66 70 70 70 70 71 72 70 69
40 41 41 45 49 47 42 48 52 56 57 57 56 55 55 58 60 62 63 64 63 63 65 67 70 71 71 71 68 66 65 64 62 63 64 66 68 66 67 64 66 68 70 69 70 70 70 69 69
35 40 39 43 46 49 48 49 54 56 57 58 57 55 54 56 57 61 63 63 62 62 64 68 70 70 70 70 66 65 65 64 63 63 65 66 68 68 70 66 65 67 70 70 69 69 69 68 67
33 35 35 45 46 47 50 50 51 54 57 57 56 55 54 57 57 59 61 62 62 63 64 67 70 70 70 70 65 64 65 66 65 64 64 67 68 69 70 69 69 70 70 68 69 69 68 68 67
31 31 32 44 47 49 45 48 49 53 55 54 55 55 53 56 59 59 60 61 61 63 64 67 70 72 70 69 67 66 64 69 70 69 70 71 70 71 69 68 68 69 70 69 69 69 68 67 66
30 32 32 43 44 47 48 48 50 51 51 51 52 53 53 56 58 59 59 62 63 64 63 67 67 70 71 70 70 70 69 68 69 70 70 70 70 70 70 69 70 70 70 70 69 68 68 67 65
26 31 32 35 45 44 46 48 50 51 51 49 51 52 52 53 56 58 59 62 64 65 66 66 66 68 70 71 72 71 69 69 70 70 70 70 70 70 70 70 69 69 70 71 70 68 68 66 66
30 31 32 29 37 45 46 48 49 50 48 49 49 51 52 54 57 58 60 63 64 66 67 67 67 69 70 72 71 71 69 67 70 69 70 69 69 70 70 69 66 67 69 69 69 68 69 68 68
29 29 29 30 29 30 44 47 48 49 49 48 54 54 53 54 57 59 60 61 64 66 67 67 68 70 71 72 70 70 69 69 70 70 70 69 69 69 70 68 68 68 69 69 69 68 66 66 68
29 26 25 27 24 22 40 40 47 47 48 53 46 48 53 56 57 59 59 61 64 64 67 68 68 70 70 70 70 69 69 68 64 63 68 70 69 69 70 70 69 69 69 69 68 68 68 68 68
24 25 25 24 23 23 27 37 44 46 48 51 50 49 52 56 57 59 59 61 62 64 67 68 70 70 71 70 70 70 70 69 69 68 68 71 70 70 70 69 70 70 69 69 69 68 68 65 66
23 27 26 24 21 21 20 27 42 42 45 50 53 52 49 55 56 58 58 60 62 66 67 68 71 70 70 71 70 68 67 67 68 68 69 68 71 69 69 71 69 70 71 69 70 69 69 69 66
22 25 26 21 18 18 18 18 39 43 40 52 51 50 53 51 54 56 56 58 63 65 68 69 71 72 71 71 71 69 68 67 68 70 67 70 71 70 71 69 70 69 69 71 70 69 69 69 66
23 20 19 18 18 15 17 25 27 37 38 47 49 52 51 51 52 55 57 57 64 65 67 70 71 72 72 72 71 71 69 69 68 62 61 65 70 71 69 68 65 69 70 69 70 70 70 69 68
22 19 18 17 16 14 31 35 42 45 44 45 50 52 53 54 53 55 57 58 63 65 67 70 71 72 72 73 73 71 71 70 69 68 68 69 68 69 68 66 66 65 69 70 70 69 70 70 69
20 19 17 14 20 19 39 39 42 49 50 50 52 54 54 57 58 59 59 58 61 64 66 70 72 72 73 73 74 74 73 72 72 71 70 69 69 69 68 68 66 65 65 66 70 70 69 69 70
20 16 17 14 16 20 39 42 44 43 41 46 50 52 52 56 61 63 57 50 62 64 66 71 72 73 73 74 73 73 74 73 72 72 73 72 69 70 69 67 67 65 67 69 70 70 69 69 69
15 17 15 17 16 19 37 38 34 39 36 40 45 49 52 52 53 53 48 50 62 63 66 71 72 73 73 73 73 74 73 73 72 72 71 71 67 69 71 71 70 69 69 70 70 71 71 69 70
31 23 16 16 18 28 31 37 50 47 48 46 50 47 49 54 57 54 57 60 63 64 65 70 71 72 73 73 73 72 72 72 72 71 71 68 68 71 71 71 71 72 72 71 70 71 71 70 70
33 34 30 26 22 26 29 43 49 50 50 52 58 58 58 60 63 62 65 68 68 69 69 70 71 71 71 71 71 70 70 66 69 69 68 69 68 64 63 64 65 67 71 70 71 70 71 69 69

GFSSGP_sfc_30mbdewp_240.txt.gz
Dewpoint
65 65 68 65 54 52 50 52 53 53 53 55 54 55 54 56 52 52 67 68 71 72 73 74 74 73 73 73 73 73 74 73 73 73 72 72 71 71 71 72 73 73 72 72 73 73 74 70 73
64 64 64 60 53 50 50 54 53 54 55 56 56 55 55 55 61 63 65 71 71 71 73 74 74 74 73 73 73 72 72 73 73 72 72 72 72 71 71 71 71 71 74 72 71 72 72 73 71
66 66 59 55 51 47 51 54 54 56 56 55 55 56 56 59 62 63 67 70 72 72 74 74 74 74 73 72 72 72 72 72 72 72 72 72 72 71 70 70 70 71 71 72 73 71 71 72 72
66 61 63 53 49 52 54 57 55 55 54 55 55 55 57 59 59 64 67 71 71 73 73 74 74 73 73 72 72 72 72 72 72 72 72 71 70 71 71 72 72 72 71 71 71 73 72 71 70
65 61 57 54 53 54 56 60 56 55 55 56 55 56 57 58 61 65 68 69 71 73 73 74 74 74 73 73 72 72 73 72 72 72 71 71 72 72 71 72 72 72 72 71 71 71 72 72 71
55 60 53 52 54 56 59 57 56 55 56 57 57 56 58 58 61 64 64 69 72 73 73 73 74 74 74 73 74 73 72 72 72 71 72 72 72 71 71 71 71 71 71 71 71 71 71 71 71
54 54 50 50 53 54 54 58 56 55 55 56 57 56 58 59 61 64 68 70 71 73 73 73 73 72 73 74 73 73 72 72 72 72 71 71 70 71 71 71 70 71 71 71 71 71 71 71 71
51 53 50 46 48 52 55 56 57 57 56 58 57 56 58 64 68 70 70 71 72 72 73 73 72 72 74 73 72 72 72 71 71 71 72 73 73 72 69 68 70 70 70 71 71 71 71 71 71
53 46 44 44 47 49 56 57 61 58 57 57 57 58 62 67 68 68 69 69 71 72 72 72 72 73 73 73 72 72 71 71 72 71 71 69 66 65 64 66 68 70 70 71 70 70 71 71 71
43 42 44 45 48 49 56 58 59 57 56 56 58 61 65 66 67 67 67 68 69 69 70 71 72 72 72 72 72 72 73 71 68 66 65 67 66 66 66 66 68 72 71 70 70 70 70 70 71
44 41 43 46 49 52 54 56 55 57 55 55 59 61 63 64 65 65 67 67 67 68 69 70 71 72 71 72 72 71 68 65 64 62 61 62 66 65 66 66 65 68 71 71 70 71 71 71 70
41 44 44 48 48 47 48 53 57 57 55 56 60 61 61 63 64 65 66 66 66 67 68 68 70 71 71 72 71 69 65 63 63 62 62 64 66 65 68 67 65 67 68 69 69 69 70 71 70
40 42 46 48 46 51 55 53 57 57 57 56 59 60 60 62 63 64 65 65 66 65 66 67 70 71 71 70 69 67 65 64 63 62 63 64 66 66 68 68 65 65 66 69 69 69 69 69 69
39 42 48 48 48 54 56 57 57 57 57 55 55 58 59 60 62 63 64 64 63 64 66 68 70 70 70 69 65 65 65 64 63 63 63 64 66 68 69 68 67 67 67 69 68 69 69 68 68
34 46 47 49 49 50 52 55 56 57 57 56 55 54 57 59 61 62 63 63 61 63 66 68 69 70 70 69 65 64 64 66 66 65 65 66 67 68 69 69 68 68 69 69 69 69 69 68 68
31 41 43 47 47 47 50 49 56 57 56 55 54 54 56 58 60 61 63 62 62 63 65 68 69 70 69 69 67 66 65 65 68 70 69 70 70 70 70 69 68 69 69 70 69 68 68 68 67
30 30 36 44 46 43 49 49 55 56 54 54 54 54 54 57 58 60 62 62 62 64 65 68 69 70 69 70 69 67 68 67 68 69 70 69 70 70 70 69 70 70 69 69 69 68 68 67 66
26 31 32 39 44 45 48 48 50 51 52 52 53 53 54 57 58 59 61 61 63 63 66 67 68 69 70 70 70 70 69 69 69 70 70 69 70 70 69 69 69 67 67 68 69 68 68 68 66
29 31 32 33 45 46 47 49 49 50 50 50 52 52 52 55 57 59 60 62 63 64 66 65 67 69 71 70 70 70 69 68 67 69 69 69 69 69 70 69 68 67 66 67 68 68 68 66 68
32 31 29 32 40 40 47 48 49 49 49 50 51 53 54 55 58 59 60 63 64 65 65 66 67 70 71 71 71 70 69 69 69 69 68 69 70 70 70 69 68 68 68 68 68 68 64 65 68
29 27 26 27 28 30 46 46 48 49 49 52 52 53 55 54 57 59 60 62 64 65 66 66 67 70 71 71 70 70 69 68 68 67 67 67 70 71 71 71 69 69 69 68 68 68 66 65 66
29 26 26 27 23 20 35 31 45 47 50 48 48 48 53 55 57 59 59 61 64 65 67 67 67 69 70 70 69 68 67 65 65 67 68 68 70 67 63 65 68 70 70 69 69 69 68 68 65
29 26 25 22 19 19 18 24 40 48 50 48 49 51 54 56 57 57 59 60 63 64 67 67 69 68 69 70 70 69 67 67 67 69 69 70 68 61 59 62 66 66 69 69 70 69 68 69 67
26 23 21 21 19 15 16 18 33 42 48 49 53 53 54 56 54 56 58 57 61 64 66 68 70 69 69 70 71 69 68 67 68 65 63 67 68 61 60 63 65 66 69 69 68 70 70 69 68
21 20 18 16 16 15 30 34 39 45 47 51 51 53 54 52 55 58 59 58 59 65 66 68 70 70 70 70 70 70 70 68 68 65 65 69 69 67 64 67 68 67 67 70 70 67 68 69 68
17 20 19 15 16 18 37 33 39 48 48 51 51 53 55 53 56 49 58 62 59 63 67 68 70 70 72 71 71 71 71 71 69 69 70 69 68 68 68 68 66 65 65 63 68 70 70 69 68
12 18 20 18 17 22 38 38 42 45 49 51 52 54 55 56 54 53 56 57 59 63 66 68 70 70 72 73 72 72 72 72 71 71 71 70 70 69 69 66 67 67 64 66 68 69 69 69 69
19 17 14 17 13 19 37 36 33 38 43 52 53 56 56 59 60 55 55 54 57 61 66 69 70 70 72 73 73 73 72 71 72 72 72 69 69 70 68 68 67 68 69 68 69 69 70 70 69
30 30 26 18 20 24 27 32 44 45 48 56 55 56 58 59 62 56 58 61 60 59 64 69 71 71 72 72 72 72 71 71 71 70 71 70 67 70 70 69 71 71 71 71 71 70 70 70 70
31 32 31 25 24 31 34 33 50 51 53 56 57 60 63 62 62 62 63 61 59 63 66 70 72 72 71 70 70 70 71 70 70 69 69 69 69 67 66 66 65 64 66 70 70 69 69 69 69

GFSSGP_sfc_30mbdewp_246.txt.gz
Dewpoint
68 68 69 64 51 53 51 52 55 51 50 54 53 54 54 59 55 48 67 68 71 72 72 72 73 73 73 73 74 73 73 73 73 74 74 73 73 73 73 74 73 71 71 70 71 72 72 72 71
66 66 63 58 49 48 50 55 53 54 54 55 56 56 55 59 64 66 66 70 72 72 72 73 73 72 73 73 73 73 72 72 72 72 72 73 73 73 72 71 71 73 73 73 70 71 71 71 72
65 65 54 50 50 47 50 56 56 56 56 55 55 57 58 61 65 65 68 71 72 72 73 72 73 73 73 73 73 73 72 72 72 72 71 71 71 70 71 73 73 71 71 72 73 71 72 73 72
60 60 59 47 45 50 54 57 57 56 56 56 57 56 60 64 64 68 70 71 72 72 72 73 72 72 72 72 72 72 72 72 72 71 71 71 70 70 70 70 70 72 73 70 70 71 71 72 72
64 59 50 49 49 53 54 56 59 56 56 55 56 56 60 65 68 68 70 71 72 72 72 72 73 72 72 72 72 72 72 72 71 71 71 70 71 71 72 72 72 71 70 72 73 71 70 70 71
54 56 48 46 50 54 57 57 58 56 57 56 56 56 60 67 67 68 70 71 72 71 72 73 72 72 72 72 72 72 72 72 71 71 71 72 72 71 72 71 71 71 71 71 71 72 72 72 70
50 51 50 51 51 54 55 59 57 57 57 57 58 56 62 66 68 68 70 72 72 72 72 72 72 71 71 72 72 72 72 72 71 71 72 72 71 71 71 70 71 71 71 71 70 71 72 71 72
54 51 50 51 53 52 56 58 57 57 57 59 57 56 59 64 68 69 70 72 71 72 72 72 72 72 72 72 72 72 72 72 72 72 72 71 71 72 71 71 70 71 71 71 71 71 71 71 71
57 46 47 48 54 54 57 57 57 58 57 58 59 58 61 66 68 69 69 70 71 72 72 72 72 71 72 73 72 72 72 72 72 72 71 72 70 69 67 67 68 71 70 71 71 71 71 71 71
47 46 45 48 53 56 57 54 56 57 57 60 59 60 63 66 67 66 66 67 69 70 71 72 72 71 73 73 72 73 73 72 71 71 71 68 65 64 64 66 67 69 70 71 71 70 70 70 71
47 44 46 47 52 58 58 57 60 56 56 60 59 63 65 65 65 65 66 66 67 69 71 72 72 72 73 72 72 72 71 71 70 69 69 67 66 66 65 66 65 67 71 71 70 70 71 70 71
43 45 47 55 58 58 57 59 57 56 56 61 63 64 65 65 65 65 66 67 67 69 70 71 72 72 72 72 72 71 70 69 67 65 63 62 62 64 65 67 66 65 69 69 69 69 69 71 71
43 47 50 56 57 58 58 57 57 57 59 63 65 65 65 65 65 66 66 68 68 69 70 71 71 72 72 71 72 71 69 68 67 64 62 61 62 64 65 66 67 66 68 67 68 69 69 69 70
43 48 49 54 55 56 56 58 57 57 61 62 64 64 65 64 65 66 66 67 67 68 69 71 71 72 71 71 71 71 68 66 64 62 61 62 63 64 65 65 68 66 66 66 67 67 68 69 69
48 46 51 55 56 57 57 55 55 59 61 62 63 64 64 64 65 65 66 66 66 67 68 69 70 71 71 71 70 70 68 66 64 62 62 63 64 63 66 67 68 68 68 68 69 68 68 68 69
46 46 43 50 55 57 52 48 56 59 60 60 61 62 62 63 64 65 65 66 66 67 67 68 69 70 70 70 69 68 67 66 65 64 64 65 64 65 66 67 69 69 69 69 68 68 68 68 68
40 42 43 47 53 55 52 50 56 57 59 59 59 60 61 61 63 63 65 65 65 66 66 67 69 70 70 70 69 67 66 64 64 66 68 68 68 69 67 67 69 69 69 69 69 68 68 67 67
40 41 42 46 49 51 50 49 55 57 55 57 59 59 59 59 60 62 63 64 64 65 66 67 68 69 70 69 68 68 67 67 66 66 67 69 69 69 70 69 69 70 69 69 69 68 69 68 67
31 33 41 42 48 47 47 48 54 57 56 55 55 56 57 58 60 60 62 64 63 64 66 67 68 69 69 69 68 68 67 67 67 68 68 69 69 69 69 69 69 69 68 67 66 68 67 67 67
32 31 34 34 45 47 46 46 52 56 56 56 55 55 55 55 57 59 61 63 63 63 64 67 67 69 69 69 69 69 68 68 68 69 68 68 68 69 69 69 69 69 68 67 67 68 67 64 67
32 31 30 29 44 45 47 45 49 55 56 56 55 55 55 55 56 58 60 62 62 63 64 65 67 68 69 69 69 69 69 69 68 68 68 68 68 70 70 70 69 69 69 67 67 68 67 64 66
30 33 30 40 41 37 45 32 44 50 53 54 54 53 54 55 56 58 59 61 61 62 64 65 66 68 69 70 69 68 67 66 66 67 68 68 68 67 69 70 71 70 69 68 68 69 68 65 63
31 32 28 38 33 37 40 34 32 48 48 50 51 52 54 55 56 58 59 61 62 63 64 65 66 68 69 70 69 69 68 67 67 67 66 67 68 69 69 67 67 69 70 69 69 69 68 68 67
29 24 22 22 21 23 29 34 26 37 46 48 50 52 53 56 57 58 59 61 62 64 65 66 66 67 69 70 70 69 68 68 67 67 67 68 68 69 68 64 63 66 67 69 69 70 70 69 68
24 22 20 18 16 16 25 30 28 43 47 48 50 51 53 57 57 59 59 60 62 64 65 66 67 66 68 69 69 69 69 68 67 67 67 66 67 68 68 65 63 63 66 66 67 69 68 68 69
18 19 16 17 15 17 32 26 33 47 51 53 51 52 55 56 59 60 61 61 61 63 65 66 67 66 67 68 69 69 69 69 68 68 68 67 65 66 68 67 66 66 66 65 68 69 69 69 68
18 18 21 19 20 18 24 37 39 47 49 53 53 54 55 57 58 59 60 61 61 60 62 66 67 68 68 65 63 65 70 70 69 69 69 68 68 69 69 69 68 67 67 66 65 64 64 68 69
15 19 15 17 13 12 25 35 31 40 44 51 53 54 55 58 60 61 63 65 64 61 64 66 65 63 63 63 63 63 63 63 66 71 70 70 70 70 70 68 67 68 68 69 68 67 69 69 69
26 26 20 20 19 16 20 26 39 40 45 49 53 54 54 57 60 62 65 67 68 65 63 62 62 63 63 63 62 63 63 64 64 69 67 67 70 69 69 68 68 69 70 69 70 70 70 69 68
33 31 23 20 20 29 27 27 47 51 51 54 52 54 60 61 61 62 65 65 64 66 64 62 62 62 63 62 60 60 62 63 64 68 70 70 68 69 70 69 66 64 65 65 64 63 64 65 65

GFSSGP_sfc_30mbdewp_252.txt.gz
Dewpoint
71 71 69 65 56 48 49 50 47 48 49 50 51 51 52 56 54 52 62 65 65 64 67 70 74 74 74 75 75 74 73 73 73 73 73 73 73 72 73 72 71 71 73 73 72 72 71 70 71
64 66 64 56 50 47 49 50 47 49 50 51 54 55 54 58 60 61 63 65 66 64 66 68 74 74 73 74 74 74 72 72 73 73 73 73 73 73 73 72 72 70 72 73 73 72 71 70 72
63 63 55 51 50 49 50 52 52 51 51 52 55 57 57 60 61 61 64 66 66 65 65 71 74 74 73 73 74 74 73 72 73 73 73 73 73 72 71 73 74 73 72 71 71 72 72 71 72
60 58 55 49 49 54 53 53 53 52 52 52 55 56 61 63 60 61 64 65 66 65 64 72 73 73 73 73 73 72 72 73 73 73 73 73 73 73 73 72 71 71 73 73 71 73 73 71 71
60 55 49 50 50 53 56 55 54 53 54 54 53 55 60 63 62 62 62 64 65 63 65 69 74 73 73 72 72 72 72 72 72 71 71 71 70 70 70 71 73 73 71 70 71 71 72 72 71
51 53 45 42 49 53 54 56 56 54 54 53 53 55 61 64 62 61 61 61 62 61 64 68 73 73 73 72 72 72 72 72 72 72 71 70 70 71 72 72 71 71 71 73 71 70 70 72 71
48 44 44 44 49 52 54 56 55 54 53 51 52 54 62 61 62 61 60 60 61 61 62 65 67 71 72 72 72 71 72 72 72 71 71 72 72 72 72 71 71 71 71 71 71 72 72 70 70
51 45 42 44 45 50 54 55 56 55 55 55 55 53 58 60 61 61 60 59 60 60 61 63 64 68 69 70 72 71 71 71 71 71 72 72 71 71 71 71 71 71 71 71 71 71 71 72 72
52 41 40 42 43 50 55 55 57 57 55 57 59 55 57 61 60 60 59 58 59 60 60 62 62 65 67 67 69 71 72 72 72 71 71 71 69 69 68 67 69 71 71 71 71 71 71 71 71
45 40 42 45 46 50 54 54 55 55 55 56 58 59 61 60 60 59 58 56 58 60 60 62 63 63 64 65 68 70 70 71 72 71 68 71 71 68 67 67 67 67 69 70 70 71 71 70 64
44 41 45 46 50 52 54 54 55 55 53 54 57 60 59 59 58 58 57 56 56 58 59 61 63 64 64 67 68 72 72 71 70 69 69 68 67 67 64 64 63 62 64 64 69 69 68 64 61
43 46 45 49 54 53 52 55 53 54 56 55 57 59 59 57 56 54 54 55 55 56 58 60 62 65 66 67 70 71 71 71 69 68 67 68 65 67 65 66 63 64 62 63 67 68 68 68 64
42 47 50 52 53 52 55 54 53 56 58 57 58 59 59 57 54 53 54 54 55 57 59 61 62 66 67 70 72 72 70 68 65 65 68 68 66 65 63 63 64 62 64 63 68 68 66 66 65
44 48 51 52 51 53 51 54 52 55 58 57 57 58 58 57 57 55 54 55 57 59 59 61 63 67 69 67 71 71 69 68 64 62 64 67 65 63 60 61 64 63 64 68 67 68 67 67 65
48 48 49 50 50 51 52 51 48 56 58 58 57 57 57 57 57 56 56 58 59 61 61 62 64 65 67 68 68 68 69 67 66 67 65 66 64 62 65 64 65 64 65 69 68 66 69 68 65
43 43 39 51 51 54 51 45 52 55 57 57 55 56 57 58 59 60 59 59 62 64 65 66 65 64 66 67 69 67 67 69 69 69 66 66 65 66 67 65 63 64 66 69 68 69 68 67 66
39 34 35 43 52 52 49 45 51 54 53 55 55 55 57 58 59 61 61 62 63 65 67 67 67 66 66 68 69 69 69 69 69 70 69 66 66 67 68 64 64 65 69 71 70 69 68 67 67
32 32 34 35 47 51 47 48 51 53 51 50 53 54 55 56 57 60 61 62 64 65 67 68 68 68 68 68 69 70 69 68 70 70 67 66 67 68 69 66 67 69 68 69 67 69 67 66 66
31 30 29 32 41 47 45 45 47 52 52 49 50 51 53 53 54 57 61 62 63 65 66 68 68 68 69 68 67 67 68 69 68 68 68 68 67 69 70 68 68 70 68 69 68 67 67 65 66
31 30 29 33 38 44 40 42 45 50 51 51 50 49 49 51 53 56 59 61 62 63 65 67 68 69 70 69 68 68 68 70 68 67 68 69 68 68 69 70 70 69 67 69 68 68 67 67 67
30 30 30 30 38 41 43 37 41 47 52 52 52 51 49 49 51 54 56 58 61 62 64 66 68 69 70 69 69 70 70 70 70 69 68 68 70 69 70 70 71 71 69 67 68 69 68 67 68
27 31 30 30 29 31 40 27 38 41 47 51 51 52 51 50 51 52 54 57 58 61 63 66 68 69 70 71 68 69 67 67 67 67 67 69 70 70 70 70 72 71 69 67 65 68 70 68 66
25 29 29 30 29 28 35 26 30 38 34 43 50 51 52 51 50 52 53 55 58 59 62 65 68 70 70 71 70 69 69 67 69 67 68 71 70 71 70 71 71 71 69 68 69 69 70 69 69
25 22 26 29 27 23 23 23 22 25 35 42 46 49 51 54 51 53 55 56 58 60 62 64 67 70 70 70 71 70 69 69 68 70 70 68 67 69 72 71 71 67 66 69 69 70 69 70 69
29 24 23 23 21 21 22 23 23 33 44 46 49 49 51 53 55 55 56 57 58 60 63 64 67 69 70 70 70 70 70 70 70 70 68 68 68 67 69 72 71 68 68 68 68 68 69 70 69
29 26 24 23 22 23 28 21 26 42 45 52 53 52 53 53 54 56 56 58 60 62 64 65 65 68 68 69 69 70 71 70 69 69 70 70 71 67 70 71 71 70 69 69 69 68 67 68 69
27 28 27 26 21 19 20 23 22 42 48 51 53 54 56 57 57 61 61 61 63 63 65 66 66 67 68 68 70 71 71 70 69 71 70 70 71 70 71 71 70 70 70 70 70 67 68 68 69
21 23 25 25 24 22 21 22 21 39 48 51 53 54 57 59 60 60 60 61 61 62 63 65 66 67 68 69 70 70 70 71 70 68 70 70 71 71 69 68 69 70 70 71 70 67 68 67 65
19 19 21 19 19 16 16 18 25 40 50 51 52 55 57 58 59 61 62 61 61 61 63 63 67 69 70 70 69 68 67 68 68 67 68 69 70 71 67 64 65 64 68 68 69 67 67 66 64
28 21 19 16 16 18 20 17 39 49 50 53 56 57 58 59 60 60 61 62 62 63 64 66 68 68 68 69 68 67 67 67 67 66 67 69 69 69 70 67 63 62 65 68 67 65 60 63 62

GFSSGP_sfc_30mbdewp_255.txt.gz
Dewpoint
73 72 70 64 59 53 49 44 46 47 48 48 49 51 52 54 55 53 62 63 61 62 68 71 74 74 74 74 74 73 73 74 72 73 73 73 72 73 71 71 72 73 72 72 72 71 73 72 73
66 65 63 58 56 48 49 46 47 48 49 52 53 52 55 55 56 59 62 62 60 62 66 69 75 75 74 74 74 73 73 73 72 72 73 73 72 73 71 71 70 73 73 72 72 71 70 71 71
66 62 57 51 51 51 49 49 48 49 50 52 53 56 57 57 57 58 63 61 60 61 63 71 74 74 74 73 73 73 72 72 73 73 73 73 73 73 72 73 73 70 71 72 72 72 71 72 72
60 58 55 54 48 49 50 51 50 49 50 52 54 56 60 60 58 60 62 62 59 60 64 73 74 73 73 73 73 73 72 73 73 73 73 73 72 72 71 71 72 73 72 70 71 71 71 71 72
58 54 49 48 47 50 51 53 53 52 51 52 51 54 58 59 59 60 61 64 59 59 66 70 74 73 73 73 72 72 73 73 73 72 72 71 71 70 71 72 73 71 70 73 71 73 72 71 70
51 51 46 40 43 48 51 52 52 51 52 51 52 57 60 62 59 60 60 61 60 60 63 69 73 73 72 72 72 72 72 72 72 71 71 70 70 70 71 71 71 70 71 71 70 70 72 72 71
46 40 38 39 43 45 51 53 52 49 50 49 49 54 61 60 58 58 58 58 57 59 61 65 68 71 73 73 72 72 72 72 72 71 71 71 72 72 72 71 71 71 71 71 71 71 70 70 71
48 40 39 40 38 44 50 53 52 53 51 52 54 54 57 58 57 57 56 56 57 57 60 62 64 66 67 69 72 71 72 71 72 71 72 72 71 70 70 71 71 71 71 71 71 71 72 71 71
48 45 38 40 39 44 50 49 54 53 52 55 55 53 56 57 56 55 55 55 56 56 58 59 61 63 66 66 70 71 72 71 71 72 68 67 66 70 70 68 69 70 71 71 70 70 71 71 71
43 39 39 42 42 44 46 49 51 53 52 54 54 55 57 57 56 54 54 54 55 56 56 58 60 60 62 62 69 67 70 70 72 69 60 63 69 65 66 66 67 67 67 70 71 71 71 71 65
41 39 42 43 46 48 47 47 49 50 53 51 54 55 56 56 55 54 53 52 55 55 56 58 59 61 62 62 70 67 72 72 71 70 67 70 67 63 63 63 64 62 65 62 68 69 68 65 64
39 41 43 47 48 48 48 49 47 53 51 52 56 55 55 55 54 53 52 52 53 55 56 57 58 60 63 65 66 71 72 72 70 67 69 69 65 63 65 64 65 63 61 60 63 66 68 67 69
38 42 45 47 48 49 51 48 47 52 54 53 55 55 54 54 54 53 52 54 54 54 56 57 59 63 63 66 67 71 71 70 64 68 65 67 64 68 67 63 62 62 62 61 65 66 69 68 65
39 42 45 47 48 50 49 51 48 52 53 52 54 54 54 53 52 52 53 53 54 55 56 58 59 63 64 65 67 72 71 65 64 64 63 67 65 66 64 61 62 63 62 64 68 68 65 66 64
39 40 43 45 46 48 49 49 43 52 52 51 52 53 54 54 52 53 54 54 55 57 58 59 61 63 67 67 69 70 66 63 63 64 64 66 65 67 66 64 65 66 64 67 67 66 67 69 69
37 38 49 43 46 50 55 47 48 52 52 50 51 52 53 54 54 55 54 55 57 58 60 61 61 62 66 66 68 64 65 65 66 67 66 67 67 67 66 66 66 65 64 66 69 67 69 69 69
36 44 41 39 43 44 51 46 49 51 52 50 50 51 52 54 55 55 56 57 58 61 63 64 64 63 66 66 70 68 66 67 66 68 67 66 68 67 67 67 66 64 63 69 70 67 69 68 67
37 41 35 33 43 43 42 42 49 50 50 51 50 50 52 53 53 56 57 57 59 61 64 66 66 66 66 67 70 70 69 68 69 70 70 70 69 67 68 65 64 64 69 70 69 69 69 68 67
39 36 31 31 35 37 39 38 46 50 48 49 50 50 51 51 53 54 56 57 59 60 64 66 67 67 68 67 68 70 69 70 71 72 69 68 67 67 69 69 69 70 69 69 69 69 68 66 66
29 28 31 35 32 34 34 34 37 48 49 48 48 49 50 50 51 52 55 56 58 60 63 66 68 69 69 68 68 69 69 70 69 68 69 68 68 68 69 70 70 70 69 68 68 68 68 66 66
28 31 37 36 32 29 32 36 40 41 48 49 48 48 48 48 49 52 53 55 56 58 64 65 68 69 70 69 68 69 70 70 69 69 68 68 69 69 69 70 71 71 70 69 68 69 68 65 67
30 34 32 29 29 34 37 38 38 39 45 48 48 49 47 47 49 51 52 52 54 57 60 65 68 70 70 71 69 68 69 68 67 68 67 68 69 70 70 70 70 72 71 68 69 66 67 69 66
31 32 30 29 28 34 34 30 34 30 39 45 48 48 49 48 48 49 51 52 53 56 59 63 68 71 71 71 71 68 68 65 68 65 68 69 69 71 70 71 72 71 69 68 68 67 70 69 68
29 26 25 26 26 25 30 28 29 37 30 39 42 46 48 49 49 49 50 52 54 55 58 62 67 70 71 71 72 71 68 69 67 69 67 67 68 69 71 71 71 71 68 68 70 70 70 70 70
29 26 22 25 23 26 26 21 32 35 38 41 44 45 47 50 51 49 50 51 53 55 58 61 66 70 71 71 71 71 71 70 69 69 67 66 68 67 70 72 71 70 69 69 68 68 70 70 70
27 25 24 28 27 34 33 21 32 36 44 47 48 48 49 49 51 51 51 52 55 57 60 63 65 69 70 70 70 71 71 70 70 70 71 69 70 68 68 71 71 70 70 70 70 68 67 69 69
29 28 28 33 35 31 28 29 30 39 44 47 49 51 52 50 52 55 55 56 59 61 63 64 65 67 69 69 70 71 71 71 69 69 70 70 70 68 70 71 70 71 71 70 69 67 67 68 68
25 30 25 22 23 22 24 30 27 36 43 47 48 50 55 57 59 60 59 60 61 61 63 64 65 66 68 68 69 71 72 72 71 71 71 70 71 71 69 71 70 70 70 70 68 65 67 65 62
22 25 21 27 25 26 24 26 36 39 45 47 49 51 55 57 59 59 60 61 61 61 62 63 66 70 70 71 70 70 70 69 69 68 68 71 72 70 70 68 66 66 69 69 69 67 65 64 63
23 22 18 16 18 16 18 26 40 43 46 49 51 53 55 58 59 59 60 61 61 64 66 67 69 68 69 69 69 69 68 68 67 67 67 68 70 70 70 69 66 65 68 69 69 68 62 60 60

GFSSGP_sfc_30mbdewp_261.txt.gz
Dewpoint
74 75 74 64 52 56 51 47 45 46 52 55 53 54 58 59 56 54 65 64 68 71 73 74 74 74 73 73 72 74 72 72 73 73 72 73 71 72 73 72 73 73 72 73 73 73 72 72 72
71 68 65 62 55 51 51 55 47 49 56 58 57 56 58 58 61 62 61 64 66 70 72 74 74 74 73 73 73 73 72 73 73 73 72 73 70 70 72 73 72 73 72 71 73 73 72 72 72
72 66 63 57 55 48 50 54 51 52 56 57 56 55 58 59 62 62 61 63 67 68 71 74 75 75 73 73 73 74 72 72 73 73 73 72 72 72 69 71 73 72 72 71 70 71 71 72 72
66 65 63 55 53 54 53 51 51 53 55 56 55 55 59 61 60 59 60 63 63 67 72 75 75 74 73 72 73 73 73 73 73 73 72 71 71 72 72 72 71 71 72 72 72 72 73 72 72
65 63 55 54 52 55 53 52 51 53 55 55 56 57 58 60 59 59 61 62 66 72 74 74 75 74 74 73 73 72 73 73 73 73 72 72 72 72 72 70 71 72 71 72 72 71 71 73 73
59 58 51 47 50 56 54 55 54 54 54 54 56 57 58 59 58 59 60 62 70 72 73 74 74 74 74 73 74 74 73 72 72 71 70 69 69 69 70 70 71 71 71 70 71 73 72 71 71
49 51 46 48 48 51 53 55 53 54 53 54 57 56 57 58 58 59 61 68 69 70 72 73 73 73 73 73 72 72 72 71 71 71 70 71 72 72 73 72 72 70 70 71 70 69 71 72 71
47 47 45 44 50 51 54 54 56 54 53 56 58 56 56 59 58 64 66 67 67 70 71 72 73 73 73 73 72 72 72 72 71 70 72 72 72 69 70 65 68 71 71 71 71 71 71 70 70
47 45 43 43 43 50 54 52 53 50 51 52 58 58 58 59 58 63 64 65 66 68 69 70 71 72 72 73 72 72 72 71 71 72 70 68 65 62 65 65 67 71 71 70 71 71 71 72 71
46 45 43 42 44 49 51 51 50 51 51 56 57 58 58 59 58 59 61 61 63 64 65 68 69 70 71 72 72 72 72 72 72 71 67 62 66 65 62 61 65 70 71 68 71 71 71 71 72
47 43 43 42 42 47 51 52 51 52 52 55 57 57 55 57 58 56 58 57 61 61 63 65 67 68 69 70 71 72 72 72 71 69 65 61 66 67 67 65 66 69 69 67 67 70 71 71 71
44 54 55 50 44 43 50 53 52 52 52 55 56 55 54 53 53 53 56 56 58 57 61 63 64 65 68 71 70 71 71 71 71 69 66 69 67 65 65 66 68 68 65 66 67 69 69 70 69
48 54 52 51 54 48 47 52 50 52 53 55 55 54 54 53 53 52 53 54 57 57 59 62 64 65 70 70 71 71 71 71 71 70 69 68 66 65 67 67 68 67 68 66 67 69 69 69 68
52 53 52 51 51 51 46 49 49 52 53 53 54 54 54 53 53 52 52 52 53 54 57 61 67 67 69 70 71 71 71 71 70 67 67 66 66 65 67 67 66 67 67 66 66 67 66 66 68
51 53 55 53 52 48 47 48 48 50 52 52 53 54 54 53 53 52 52 52 54 55 58 62 65 66 69 70 71 71 71 70 69 67 66 66 67 67 67 66 67 67 67 68 67 67 69 69 69
47 50 44 51 48 49 45 46 50 50 51 51 52 53 53 53 53 52 53 54 54 55 57 62 62 64 68 70 71 71 70 69 68 66 67 68 68 69 68 67 66 66 67 67 68 68 67 68 68
46 44 47 47 47 48 46 43 50 52 50 49 51 52 53 53 52 53 53 54 56 57 58 59 63 64 66 67 70 70 69 67 66 66 65 69 68 68 68 68 68 68 68 68 68 68 68 67 67
43 43 45 44 47 48 47 48 54 55 52 48 49 51 51 52 52 54 54 55 58 61 61 63 63 66 67 69 69 70 68 69 67 69 68 69 69 70 69 68 68 69 69 68 68 67 68 69 67
44 43 42 46 46 48 50 44 51 50 53 51 49 49 50 52 53 54 54 57 61 62 62 63 64 65 68 70 69 69 68 68 70 71 70 70 70 69 70 69 69 69 68 69 68 68 66 67 69
41 39 41 44 46 48 52 49 51 42 52 54 50 50 50 51 52 54 55 57 61 62 62 64 68 67 68 70 69 69 69 70 70 70 70 70 69 70 70 70 69 69 68 68 68 68 66 67 67
40 41 40 40 43 45 51 50 49 54 55 55 50 51 51 50 52 54 55 56 60 63 63 66 69 71 70 70 70 71 71 70 70 70 70 71 71 70 70 70 69 69 69 68 67 68 67 66 67
37 39 39 40 38 34 45 41 49 50 52 45 44 50 51 51 52 54 54 55 60 64 65 69 70 71 70 71 71 69 68 67 69 69 69 69 71 71 70 71 70 70 70 70 69 69 68 68 65
38 40 41 39 33 32 35 34 44 46 43 39 35 43 51 51 52 52 53 54 58 63 67 69 70 72 72 71 70 71 69 68 69 69 69 69 70 71 71 71 71 71 71 70 70 68 68 69 66
34 32 32 31 30 34 38 35 40 41 41 42 40 44 51 51 51 52 53 54 58 64 66 70 70 72 72 72 72 71 70 69 69 69 68 70 70 71 72 71 72 72 71 71 71 69 68 68 69
35 31 29 32 35 34 37 36 37 41 43 39 43 51 57 53 51 53 53 55 56 62 65 70 72 72 73 73 73 72 72 70 70 69 69 68 69 71 71 70 71 71 71 71 71 70 70 68 69
32 30 31 28 31 34 40 32 35 50 53 53 50 51 55 56 59 59 54 62 65 60 65 70 72 73 73 74 73 73 73 72 71 70 70 71 70 69 70 70 71 70 70 70 70 70 69 70 70
32 32 36 33 38 34 35 36 43 49 49 49 47 55 54 59 60 57 52 60 65 66 70 72 72 71 72 72 73 73 72 72 71 71 71 71 71 71 71 71 70 70 70 70 71 70 68 69 69
30 39 34 37 30 31 33 38 44 47 46 45 43 58 53 52 56 57 56 62 65 66 71 72 72 71 72 72 72 72 71 71 71 71 71 70 70 70 69 70 70 70 69 67 66 65 68 67 67
27 31 34 39 38 29 34 40 48 50 51 49 50 54 58 59 58 60 64 68 69 70 70 70 71 71 71 70 71 71 70 70 70 69 70 70 70 69 66 67 68 68 67 65 65 66 65 68 67
27 26 26 28 34 36 35 43 51 53 51 49 50 54 59 60 61 63 67 67 68 69 69 69 69 69 70 70 69 69 69 68 67 66 67 67 67 68 70 69 66 66 66 68 68 67 66 66 64